Location: Bijele Vode
(45.2833°N, 16.2000°E)
Time: 02:47:27
(UTC+00:00)

VRSS-1 - Visible Passes

Search period start: 13 April 2021 00:00
Search period end: 23 April 2021 00:00
Orbit: 631 x 653 km, 97.7° (Epoch: 12 April)

Date Brightness Start Highest point End Pass type
(mag) Time Alt. Az. Time Alt. Az. Time Alt. Az.
13 Apr ? 19:28:07 26° S 19:30:40 82° W 19:35:11 10° NNW visible
14 Apr ? 18:15:09 10° ESE 18:18:27 21° ENE 18:21:46 10° NNE visible
14 Apr ? 19:52:16 23° SSW 19:54:42 46° W 19:59:03 10° NNW visible
15 Apr ? 18:38:48 13° SE 18:42:13 33° ENE 18:46:17 10° N visible
15 Apr ? 20:16:25 17° SW 20:18:49 27° W 20:22:39 10° NW visible
16 Apr ? 19:02:57 18° SSE 19:06:05 57° ENE 19:10:31 10° N visible
16 Apr ? 20:40:34 11° SW 20:43:01 16° W 20:45:45 10° NW visible
17 Apr ? 19:27:06 22° S 19:30:01 82° WSW 19:34:34 10° NNW visible
18 Apr ? 18:14:30 10° ESE 18:17:49 20° ENE 18:21:08 10° NNE visible
18 Apr ? 19:51:15 20° SSW 19:54:04 46° W 19:58:25 10° NNW visible
19 Apr ? 18:37:47 11° SE 18:41:35 33° ENE 18:45:39 10° N visible
19 Apr ? 20:15:24 15° SW 20:18:11 27° W 20:22:01 10° NW visible
20 Apr ? 19:01:56 16° SSE 19:05:27 57° ENE 19:09:53 10° N visible
20 Apr ? 20:39:39 10° SW 20:42:23 16° W 20:45:08 10° NW visible
21 Apr ? 19:26:06 18° S 19:29:24 82° WSW 19:33:57 10° NNW visible
22 Apr ? 19:50:15 17° SSW 19:53:26 46° W 19:57:47 10° NNW visible
